Delft, Netherlands
Current Conditions -  °F | °C
As of 4:25 PM on Thursday 30 Oct 2014 (Local Time) from EHRD Reporting Station
Clear Clear  
Wind Chill: 61°   Ceiling: Unl
Heat Index: 61°   Visibility: 5mi
Dew Point: 57°   Wind: 8mph
Humidity: 88%   Direction: 180°S
Pressure: 30.12"   Gusts: NA
Location:  52°N, 4.36°E
Report Text: EHRD 301525Z AUTO 18007KT 8000 NSC 16/14 Q1020 NOSIG
Loading
Personal Weather Stations






























Interactive Weather Map
Tropical Storm Tracking
New forecast layout! Learn more

10-Day Weather Forecast

Advertisements
Track Severe Weather on mobile